Regional Weather Roundup
Issued by NWS Charleston, SC

Current Version | Previous Version | Graphics & Text | Print | Product List | Glossary On
Versions: 1 2 3 4 5 6 7 8 9 10 11 12 13 14 15 16 17 18 19 20 21 22 23 24 25 26 27 28 29 30 31 32 33 34 35 36 37 38 39 40 41 42 43 44 45 46 47 48 49 50
000
ASUS42 KCHS 271512
RWRCHS

Regional Weather Roundup
National Weather Service Charleston SC
1100 AM EDT SUN MAY 27 2018

NOTE: "fair" indicates few or no clouds below 12,000 feet with no
significant weather and/or obstructions to visibility.

Not all stations are quality controlled. Use data with caution,
especially dewpoint observations.

SCZ027-030-031-034>040-042>050-271600-
...Southeast South Carolina...

CITY           SKY/WX    TMP DP  RH WIND       PRES   REMARKS
N Charleston   CLOUDY    81  71  71 E13       30.01R
Waterfront Prk   N/A     80  73  79 E10       29.85S
Mount Pleasant FAIR      81  73  78 SE5       30.01S
Johns Island   FAIR      81  73  78 E13       30.00S
Pinopolis        N/A     81  72  74 VRB3      29.95S
Moncks Corner  FAIR      79  68  69 SE6       30.01S
Summerville    FAIR      81  70  69 E3        30.02R
Beaufort MCAS  FAIR      83  73  72 E12       29.98S
Beaufort Arpt  PTSUNNY   81  70  69 E12       29.98S
Hilton Head Is MOSUNNY   81  73  78 NE12      29.99S
Walterboro     FAIR      81  70  69 E12       30.01S
Allendale      FAIR      79  72  78 SE8       29.99S

...Southern Midlands and Pee Dee...

CITY           SKY/WX    TMP DP  RH WIND       PRES   REMARKS
Georgetown     FAIR      79  72  78 E7        30.03S
Kingstree      PTSUNNY   79  72  78 SE6       30.02S
Orangeburg     FAIR      79  68  69 SE6       30.01S
Barnwell       PTSUNNY   79  70  73 SE9       30.00S
Aiken          PTSUNNY   77  70  78 SE7       30.04S
Manning        FAIR      77  68  73 S6        30.01F
Columbia       PTSUNNY   81  71  71 S7        30.00S
Sumter         CLOUDY    81  68  65 E6        30.00S
Florence       PTSUNNY   80  70  71 S6        30.03S
Myrtle Beach   PTSUNNY   79  70  74 SE7       30.05R
N Myrtle Beach FAIR      79  71  76 S6        30.03F

$$

GAZ063-065-086>088-099>101-113>116-118-119-134>141-150-271600-
...Southeast Georgia...

CITY           SKY/WX    TMP DP  RH WIND       PRES   REMARKS
Savannah Arpt  PTSUNNY   82  71  69 E17       29.97S
Hunter AAF     FAIR      75  68  78 E9        29.94
Fort Stewart   PTSUNNY   75  72  88 NE6       29.94S
Statesboro     FAIR      81  68  65 E8        29.97S
Sylvania       FAIR      83  72  69 E7        29.99S
Claxton        FAIR      83  72  68 NE8       29.96F

...CSRA, Central and far Southeast Georgia...

CITY           SKY/WX    TMP DP  RH WIND       PRES   REMARKS
Thomson        FAIR      77  69  76 S5        30.04S
Augusta-Bush   PTSUNNY   78  72  81 E6        29.99F
Augusta-Daniel FAIR      79  70  74 E5        30.01S
Swainsboro     PTSUNNY   79  72  78 E10       29.99S
Vidalia        PTSUNNY   81  68  65 E9        29.96F
Eastman        PTSUNNY   81  65  59 E8        29.98F
Hazlehurst       N/A     81  67  62 SE8       29.94S
Alma           CLOUDY    78  69  73 E10       29.94S
Waycross       CLOUDY    74  72  91 E10       29.93F
Jesup          LGT RAIN  75  70  84 CALM      29.95S
Baxley         LGT RAIN  72  72 100 E12G20    29.95R
Brunswick      LGT RAIN  72  68  88 E16       29.97R
Saint Simons   LGT RAIN  72  67  84 E13       29.95S

$$

SCZ027-028-034-036>038-045-046-048>050-GAZ119-141-271600-
...Lake and Supplemental Coastal Observations...

STATION/POSITION TIME  TEMP    WIND        PRES    WAVE   SWELL
                       AIR SEA DIR/SP/G            HT/PER HT/PER/DIR
                 (UTC) (F)     (DEG/KT/KT) (MB)    (FT/S) (FT/S/D)
Winyah Bay       1345   78     130/  5     1017.0
Lake Murray      1420   79     150/  1/  4 1015.2
ACE Basin NERRS  1345   80     110/  3     1016.0
Fort Pulaski     1448   78 79  110/ 14/ 19 1015.4R
Sapelo Island    1400   75     100/  6     1014.0

$$

ANZ835-935-AMZ111-154-330-350-352-354-370-450-454-472-271600-
...C-MAN and Buoy Observations...

STATION/POSITION TIME  TEMP    WIND        PRES    WAVE   SWELL
                       AIR SEA DIR/SP/G            HT/PER HT/PER/DIR
                 (UTC) (F)     (DEG/KT/KT) (MB)    (FT/S) (FT/S/D)
Buoy 41004       1450      76   90/  8/ 10 1016.2S   3/ 5   3/150/ 5
Buoy 41008       1450   75 77  110/ 19/ 23 1013.8F   4/ 6   2/110/ 8
Folly Beach CMAN 1400   78      90/ 14/ 16 1016.6S
Capers Nearshore 1408   78 78  100/ 10/ 14 1017.0F
Fripp Nearshore  1408   78 79  100/ 12/ 16 1015.0S


STATION/POSITION TIME  TEMP    WIND        PRES    WAVE   SWELL
                       AIR SEA DIR/SP/G            HT/PER HT/PER/DIR
                 (UTC) (F)     (DEG/KT/KT) (MB)    (FT/S) (FT/S/D)
5E St. Marys GA  1500      77                N/A     4/ 5
Frying Pan Buoy  1450   78 78  120/  8/ 10 1017.3S   3/ 9   2/130/ 9
Buoy 41025       1450   78 78  190/ 14/ 16 1018.4R   3/ 5   2/130/ 8
Cape Lookout NC  1500          170/  6/  7 1018.1F
Buoy 41002       1450      78  150/ 14/ 19 1018.5R   4/ 5   2/110/ 9
Buoy 41010       1450   77 78  120/ 25/ 33 1013.9R   7/ 6   2/120/ 9
St Augustine FL  1500   74 77  130/ 20/ 21 1011.9F


$$



USA.gov is the U.S. government's official web portal to all federal, state and local government web resources and services.